Weather History for Buffalo, NY

Change the Weather History Date:

Saturday, September 24, 2011

  Actual Average Record
Temperature  
Mean Temperature 65 °F 59 °F  
Max Temperature 73 °F 68 °F 88 °F (1970)
Min Temperature 56 °F 50 °F 32 °F (1963)
Degree Days  
Heating Degree Days 0 7  
Month to date heating degree days 62 88  
Since 1 July heating degree days 64 115  
Cooling Degree Days 0 1  
Month to date cooling degree days 79 49  
Year to date cooling degree days 754 536  
Growing Degree Days 14 (Base 50)    
Moisture  
Dew Point 55 °F    
Average Humidity 73    
Maximum Humidity 93    
Minimum Humidity 53    
Precipitation  
Precipitation 0.00 in 0.14 in 1.53 in (1977)
Month to date precipitation 2.78 3.06  
Year to date precipitation 36.34 28.22  
Snow  
Snow 0.00 in 0.00 in 0.00 in ()
Month to date snowfall 0.0 0.0  
Since 1 July snowfall 0.0 0.0  
Since 1 September snowfall 0.0 0.0  
Snow Depth 0.00 in    
Sea Level Pressure  
Sea Level Pressure 30.05 in    
Wind  
Wind Speed 5 mph (WNW)    
Max Wind Speed 10 mph    
Max Gust Speed 13 mph    
Visibility 10 miles    
Events      
T = Trace of Precipitation, MM = Missing Value Source: NWS Daily Summary

Daily Weather History Graph

Daily Weather History Graph

Search for Another Location

Airport:

Trip Planner

Search our weather history database for the weather conditions in past years. The results will help you decide how hot, cold, wet, or windy it might be!

Date:

Astronomy

Sep. 24, 2011 Rise Set
Actual Time 7:04 AM EDT 7:09 PM EDT
Civil Twilight 6:35 AM EDT 7:37 PM EDT
Nautical Twilight 6:02 AM EDT 8:10 PM EDT
Astronomical Twilight 5:28 AM EDT 8:44 PM EDT
Moon 3:33 AM EDT (9/24) 5:17 PM EDT (9/24)
Length of Visible Light 13h 01m
Length of Day
12h 05m
Waning Crescent, 11% of the Moon is Illuminated
Sep 24
Waning Crescent
Sep 27
New
Oct 3
First Quarter
Oct 11
Full
Oct 19
Last Quarter

Hourly Weather History & Observations

Time (EDT) Temp. Dew Point Humidity Pressure Visibility Wind Dir Wind Speed Gust Speed Precip Events Conditions
12:03 AM 62.6 °F 57.2 °F 82% 29.96 in 10.0 mi WSW 10.4 mph - N/A   Overcast
12:38 AM 60.8 °F 57.2 °F 88% 29.96 in 10.0 mi WSW 8.1 mph - N/A   Overcast
12:54 AM 61.0 °F 57.0 °F 87% 29.96 in 10.0 mi WSW 9.2 mph - N/A   Overcast
1:05 AM 60.8 °F 57.2 °F 88% 29.97 in 10.0 mi WSW 8.1 mph - N/A   Overcast
1:28 AM 60.8 °F 57.2 °F 88% 29.97 in 10.0 mi WSW 5.8 mph - N/A   Overcast
1:54 AM 60.1 °F 57.0 °F 90% 29.98 in 10.0 mi WSW 8.1 mph - N/A   Overcast
2:27 AM 59.0 °F 55.4 °F 88% 29.98 in 10.0 mi WNW 5.8 mph - N/A   Overcast
2:54 AM 57.2 °F 55.4 °F 94% 29.98 in 10.0 mi West 6.9 mph - N/A   Overcast
3:54 AM 57.9 °F 54.0 °F 87% 29.99 in 10.0 mi WSW 6.9 mph - N/A   Overcast
4:54 AM 57.9 °F 54.0 °F 87% 30.01 in 10.0 mi WSW 5.8 mph - N/A   Mostly Cloudy
5:54 AM 57.9 °F 53.1 °F 84% 30.02 in 10.0 mi West 3.5 mph - N/A   Mostly Cloudy
6:54 AM 57.0 °F 53.1 °F 87% 30.05 in 10.0 mi West 3.5 mph - N/A   Overcast
7:54 AM 57.0 °F 54.0 °F 89% 30.06 in 10.0 mi NNW 3.5 mph - N/A   Overcast
8:54 AM 57.0 °F 53.1 °F 87% 30.08 in 10.0 mi WNW 3.5 mph - N/A   Mostly Cloudy
9:54 AM 59.0 °F 53.6 °F 82% 30.09 in 10.0 mi Calm Calm - N/A   Mostly Cloudy
10:54 AM 62.1 °F 55.0 °F 78% 30.10 in 10.0 mi Variable 5.8 mph - N/A   Mostly Cloudy
11:54 AM 64.4 °F 55.4 °F 73% 30.10 in 10.0 mi West 4.6 mph - N/A   Mostly Cloudy
12:54 PM 66.0 °F 55.9 °F 70% 30.10 in 10.0 mi WNW 4.6 mph - N/A   Mostly Cloudy
1:54 PM 68.0 °F 55.0 °F 63% 30.09 in 10.0 mi West 4.6 mph - N/A   Mostly Cloudy
2:54 PM 69.1 °F 54.0 °F 58% 30.08 in 10.0 mi Variable 4.6 mph - N/A   Scattered Clouds
3:54 PM 71.1 °F 53.1 °F 53% 30.07 in 10.0 mi NW 3.5 mph - N/A   Scattered Clouds
4:54 PM 72.0 °F 54.0 °F 53% 30.06 in 10.0 mi Calm Calm - N/A   Scattered Clouds
5:54 PM 70.0 °F 54.0 °F 57% 30.06 in 10.0 mi NE 4.6 mph - N/A   Scattered Clouds
6:54 PM 66.9 °F 57.0 °F 70% 30.08 in 10.0 mi NE 8.1 mph - N/A   Scattered Clouds
7:54 PM 64.9 °F 57.0 °F 75% 30.10 in 10.0 mi NNE 8.1 mph - N/A   Mostly Cloudy
8:54 PM 63.0 °F 55.9 °F 78% 30.10 in 10.0 mi ENE 8.1 mph - N/A   Mostly Cloudy
9:54 PM 62.6 °F 55.4 °F 77% 30.11 in 10.0 mi East 6.9 mph - N/A   Mostly Cloudy
10:54 PM 60.8 °F 55.4 °F 82% 30.11 in 10.0 mi East 5.8 mph - N/A   Scattered Clouds
11:54 PM 59.0 °F 54.0 °F 83% 30.11 in 10.0 mi NE 4.6 mph - N/A   Partly Cloudy